This is the latest recevied weather packets stored in our database for station/object KC0AFB. If no packets are shown the sender has not sent any weather packets the latest 10 day(s).
| Time | Temp. | Humidity | Pressure | Rain* | Wind** | Luminosity | Snow |
|---|---|---|---|---|---|---|---|
| 1777486414 | 10.56° C | 49% | 1018.9 hPa | 0 mm | - | 419 W/m² | - |
| 1777486111 | 11.67° C | 48% | 1018.6 hPa | 0 mm | - | 384 W/m² | - |
| 1777485807 | 11.67° C | 49% | 1018.8 hPa | 0 mm | - | 865 W/m² | - |
| 1777485503 | 11.67° C | 49% | 1018.5 hPa | 0 mm | - | 985 W/m² | - |
| 1777485199 | 11.11° C | 49% | 1018.6 hPa | 0 mm | - | 806 W/m² | - |
| 1777484896 | 10.56° C | 49% | 1018.6 hPa | 0 mm | - | 452 W/m² | - |
| 1777484593 | 10° C | 48% | 1018.3 hPa | 0 mm | - | 471 W/m² | - |
| 1777484289 | 10.56° C | 49% | 1018.6 hPa | 0 mm | - | 354 W/m² | - |
| 1777483985 | 10° C | 51% | 1018.7 hPa | 0 mm | - | 491 W/m² | - |
| 1777483682 | 10° C | 50% | 1018.5 hPa | 0 mm | - | 259 W/m² | - |
| 1777483377 | 10.56° C | 48% | 1018.2 hPa | 0 mm | - | 312 W/m² | - |
| 1777483072 | 10° C | 49% | 1018.6 hPa | 0 mm | - | 327 W/m² | - |
| 1777482770 | 10.56° C | 48% | 1018.2 hPa | 0 mm | - | 574 W/m² | - |
| 1777482466 | 10.56° C | 49% | 1018.2 hPa | 0 mm | - | 656 W/m² | - |
| 1777482164 | 11.11° C | 47% | 1018.7 hPa | 0 mm | - | 593 W/m² | - |
| 1777481861 | 10° C | 49% | 1018.3 hPa | 0 mm | - | 773 W/m² | - |
| 1777481558 | 10° C | 49% | 1018.7 hPa | 0 mm | - | 227 W/m² | - |
| 1777481255 | 10.56° C | 52% | 1018.6 hPa | 0 mm | - | 713 W/m² | - |
| 1777480952 | 10° C | 49% | 1018.7 hPa | 0 mm | - | 537 W/m² | - |
| 1777480648 | 10° C | 51% | 1018.3 hPa | 0 mm | - | 773 W/m² | - |
| 1777480345 | 10° C | 49% | 1018.3 hPa | 0 mm | - | 735 W/m² | - |
| 1777480041 | 10° C | 50% | 1018.3 hPa | 0 mm | - | 709 W/m² | - |
| 1777479737 | 10° C | 50% | 1018.6 hPa | 0 mm | - | 661 W/m² | - |
| 1777479436 | 10° C | 50% | 1018.6 hPa | 0 mm | - | 676 W/m² | - |
| 1777479126 | 10° C | 51% | 1018.7 hPa | 0 mm | - | 661 W/m² | - |
* Rain latest hour (hover to see other rain measurements)
** Current wind speed in m/s (hover to see current wind gust speed)